This is the latest recevied weather packets stored in our database for station/object IN3XSV-13. If no packets are shown the sender has not sent any weather packets the latest 10 day(s).
| Time | Temp. | Humidity | Pressure | Rain* | Wind** | Luminosity | Snow |
|---|---|---|---|---|---|---|---|
| 1787626972 | 18.33° C | 81% | 1007.3 hPa | 2.03 mm | - | - | - |
| 1787626672 | 18.33° C | 81% | 1007.2 hPa | 1.52 mm | - | - | - |
| 1787626372 | 18.33° C | 80% | 1007.2 hPa | 1.52 mm | - | - | - |
| 1787626072 | 18.89° C | 79% | 1007.3 hPa | 1.02 mm | - | - | - |
| 1787625772 | 18.89° C | 78% | 1007.4 hPa | 1.02 mm | - | - | - |
| 1787625472 | 19.44° C | 75% | 1007.5 hPa | 0.51 mm | - | - | - |
| 1787625172 | 20° C | 73% | 1007.5 hPa | 0 mm | - | - | - |
| 1787624872 | 19.44° C | 76% | 1007.1 hPa | 0 mm | - | - | - |
| 1787624572 | 19.44° C | 76% | 1006.9 hPa | 0 mm | - | - | - |
| 1787624272 | 19.44° C | 76% | 1006.8 hPa | 0 mm | - | - | - |
| 1787623972 | 19.44° C | 76% | 1006.8 hPa | 0 mm | - | - | - |
| 1787623672 | 19.44° C | 76% | 1006.8 hPa | 0 mm | - | - | - |
| 1787623372 | 19.44° C | 76% | 1006.8 hPa | 0 mm | - | - | - |
| 1787623072 | 20° C | 74% | 1006.9 hPa | 0 mm | - | - | - |
| 1787622772 | 20° C | 73% | 1006.9 hPa | 0 mm | - | - | - |
| 1787622472 | 20.56° C | 72% | 1007.1 hPa | 0 mm | - | - | - |
| 1787622172 | 20.56° C | 71% | 1007 hPa | 0 mm | - | - | - |
| 1787621872 | 20.56° C | 71% | 1007.1 hPa | 0 mm | - | - | - |
| 1787621572 | 20° C | 72% | 1007.4 hPa | 0 mm | - | - | - |
| 1787621272 | 20° C | 72% | 1007.3 hPa | 0 mm | - | - | - |
| 1787620972 | 20° C | 72% | 1007.4 hPa | 0 mm | - | - | - |
| 1787620672 | 20° C | 72% | 1007.4 hPa | 0 mm | - | - | - |
| 1787620372 | 20.56° C | 71% | 1007.3 hPa | 0 mm | - | - | - |
| 1787620072 | 20.56° C | 71% | 1007.5 hPa | 0 mm | - | - | - |
| 1787619772 | 20.56° C | 71% | 1007.5 hPa | 0 mm | - | - | - |
* Rain latest hour (hover to see other rain measurements)
** Current wind speed in m/s (hover to see current wind gust speed)